Flag for U.S.A. Weather past 2 weeks in San Antonio, Texas, U.S.A.

Now
87 °F

Scattered clouds.


Feels Like: 91 °F
Forecast: 76 / 95 °F
Wind: 15 mph from Southeast

Location: San Antonio International Airport

Current Time: Sep 4, 2015 at 9:03:24 PM

Latest Report: Sep 4, 2015 at 7:51 PM


Visibility: 10 mi

Pressure: 29.84 "Hg

Humidity: 55%

Dew point: 69 °F

Location of San AntonioLocation

Historic Weather in San Antonio — Graph

°F

San Antonio temperature yesterday

Maximum temperature yesterday: 93 °F (at 3:51 PM)
Minimum temperature yesterday: 75 °F (at 3:51 AM)
Average temperature yesterday: 83 °F

Past Weeks' High & Low Weather Summary

 TemperatureHumidityPressure
High100 °F (Aug 25, 4:51 PM)90% (Aug 20, 11:51 PM)30.12 "Hg (Aug 20, 11:51 PM)
Low72 °F (Aug 28, 6:51 AM)28% (Aug 31, 4:51 PM)29.78 "Hg (Sep 3, 5:51 PM)
Average84 °F61%29.95 "Hg
* Reported Aug 20 7:51 PM — Sep 4 7:51 PM, San Antonio, Weather by CustomWeather, © 2015

Note: Actual official high and low records may vary slightly from our data, if they occured in-between our weather recording intervals... More about our weather records

Advertising

San Antonio weather history for previous 24 hours

 ConditionsComfort  
Time TempWeatherWind HumidityBarometerVisibility
7:51 PM
Fri, Sep 4
87 °FScattered clouds.15 mph55%29.84 "Hg10 mi
6:51 PM89 °FBroken clouds.20 mph53%29.83 "Hg10 mi
5:51 PM96 °FScattered clouds.13 mph36%29.81 "Hg10 mi
4:51 PM96 °FScattered clouds.9 mph37%29.82 "Hg10 mi
3:51 PM95 °FScattered clouds.5 mph40%29.83 "Hg10 mi
2:51 PM95 °FPartly sunny.10 mph41%29.85 "Hg10 mi
1:51 PM93 °FPartly sunny.6 mph46%29.87 "Hg10 mi
12:51 PM89 °FBroken clouds.No wind53%29.89 "Hg10 mi
11:51 AM90 °FPartly sunny.12 mph52%29.90 "Hg10 mi
10:51 AM86 °FBroken clouds.8 mph63%29.91 "Hg10 mi
9:51 AM82 °FBroken clouds.8 mph70%29.90 "Hg10 mi
8:51 AM81 °FPartly sunny.6 mph77%29.90 "Hg10 mi
8:00 AM79 °FPassing clouds.7 mph84%29.95 "Hg10 mi
6:51 AM79 °FMostly cloudy.8 mph82%29.87 "Hg10 mi
5:51 AM79 °FMostly cloudy.7 mph84%29.87 "Hg10 mi
4:53 AM79 °FMostly cloudy.6 mph82%29.92 "Hg10 mi
3:51 AM79 °FPartly cloudy.8 mph82%29.86 "Hg10 mi
2:51 AM79 °FPassing clouds.9 mph82%29.86 "Hg10 mi
1:51 AM79 °FPartly cloudy.8 mph79%29.86 "Hg10 mi
12:51 AM79 °FPassing clouds.7 mph77%29.86 "Hg10 mi
11:51 PM
Thu, Sep 3
80 °FPassing clouds.9 mph74%29.85 "Hg10 mi
10:51 PM82 °FPassing clouds.12 mph67%29.85 "Hg10 mi
9:51 PM83 °FPassing clouds.6 mph59%29.83 "Hg10 mi
Weather by CustomWeather, © 2015

See weather overviewHow to use our weather pages